Tracking 19245 objects as of 14-Aug-2018
HD Live streaming from Space Station
objects crossing your sky now

COSMOS 529

Track COSMOS 529 now!
10-day predictions
COSMOS 529 is classified as:


NORAD ID: 6264
Int'l Code: 1972-087B
Perigee: 1,409.0 km
Apogee: 1,474.6 km
Inclination: 74.0 °
Period: 114.5 minutes
Semi major axis: 7812 km
RCS: 0.695 m2 (medium)
Launch date: November 1, 1972
Source: Commonwealth of Independent States (former USSR) (CIS)
Launch site: PLESETSK MISSILE AND SPACE COMPLEX (PKMTR)
aabbcc
Your satellite tracking list
Your tracking list is empty




NASA's NSSDC Master Catalog

Two Line Element Set (TLE):
1  6264U 72087B   18225.50867140 -.00000012 +00000-0 +24283-4 0  9998
2  6264 074.0323 254.2137 0042018 183.9673 284.9480 12.57165109100974
Source of the keplerian elements: AFSPC